Regional Weather Roundup
Issued by NWS Grand Forks, ND

Home | Current Version | Previous Version | Text Only | Print | Product List | Glossary On
Versions: 1 2 3 4 5 6 7 8 9 10 11 12 13 14 15 16 17 18 19 20 21 22 23 24 25 26 27 28 29 30 31 32 33 34 35 36 37 38 39 40 41 42 43 44 45 46 47 48 49 50
000
ASUS43 KFGF 020510
RWRFGF
PRAIRIE TO PINES  WEATHER ROUNDUP
NATIONAL WEATHER SERVICE EASTERN NORTH DAKOTA/GRAND FORKS ND
1200 AM CDT WED SEP 02 2015

 **SATELLITE DATA USED TO AUGMENT SKY COVER AT AUTOMATED STATIONS**
 *****  WEATHER ACROSS EASTERN NORTH DAKOTA  *****

CITY           SKY/WX    TMP DP  RH WIND       PRES   REMARKS
GRAND FORKS    CLEAR     69  57  65 SE6       29.82F
GRAND FRKS AFB CLEAR     65  57  75 SE3       29.82F
GRAND FRKS NWS   N/A     68 N/A N/A SE6         N/A
DEVILS LAKE    CLEAR     70  57  64 SE7       29.82S
FARGO          CLEAR     75  70  84 SE10      29.83S
WAHPETON ARPT  CLEAR     70  66  88 SE8       29.86S
$$

 ***** WEATHER ACROSS CENTRAL AND WESTERN NORTH DAKOTA  *****

CITY           SKY/WX    TMP DP  RH WIND       PRES   REMARKS
BISMARCK       CLEAR     73  67  81 E6        29.79F
MINOT          CLEAR     69  59  70 SE5       29.77S
JAMESTOWN      CLEAR     70  67  90 SE5       29.83S
MINOT AFB      CLEAR     67  63  84 S7        29.76S
GARRISON         N/A     68  62  81 E5        29.79F
WILLISTON      CLEAR     66  40  38 N7        29.79F
DICKINSON      CLEAR     63  55  75 S8        29.80F
HETTINGER      CLEAR     57  52  83 CALM      29.84F
$$

 *****  OTHER AIRPORT OBSERVATIONS IN OUR AREA  *****

CITY           SKY/WX    TMP DP  RH WIND       PRES   REMARKS
WALHALLA       FAIR      63  61  94 MISG      29.82F
GRAFTON AIRPOR FAIR      64  57  77 S3        29.83F
VALLEY CITY AR FAIR      72  72 100 S8        29.84S
CANDO          NOT AVBL
CAVALIER APRT  FAIR      59  55  88 CALM      29.82F
GWINNER          N/A     70  70 100 CALM      29.84F
SHEYENNE NWR     N/A     70  69  96 SE7       29.95S
ROLLA          FAIR      66  57  72 S10       29.83F
 ***** THE ABOVE OBSERVATIONS ARE NON NWS ARE NOT QUALITY
       CONTROLLED AND MAY MIS-REPORT RAIN FOR SNOW...
$$

  *****  WEATHER ACROSS NORTHERN MINNESOTA  *****

CITY           SKY/WX    TMP DP  RH WIND       PRES   REMARKS
FLAG ISLAND    CLEAR     70  64  83 S5        29.88S
WARROAD        CLEAR     66  57  72 S3        29.89S
ROSEAU         CLEAR     63  55  77 S6        29.88S
HALLOCK        CLEAR     68  54  60 SE8       29.83F
THF RVR FALLS  CLEAR     66  57  72 SE7       29.87S
BAUDETTE       CLEAR     62  55  77 SE3       29.90F
WASKISH        CLEAR     61  55  82 SE3       29.91F
CROOKSTON      CLEAR     70  61  73 SE7       29.84F
STEPHEN NDAWN    N/A     66  57  72 SE5         N/A
GREENBUSH NDAW   N/A     63  57  82 SE3         N/A
$$
  *****  WEATHER ACROSS CENTRAL AND WEST MINNESOTA  *****

CITY           SKY/WX    TMP DP  RH WIND       PRES   REMARKS
FOSSTON        CLEAR     70  57  64 SE7       29.88F
BEMIDJI        CLEAR     66  58  77 SE5       29.90F
PARK RAPIDS    CLEAR     71  63  75 E5        29.89F
ELBOW LAKE     FAIR      71  69  96 SE6       29.87F
WADENA         CLEAR     66  64  94 S5        29.91R FOG
DETROIT LAKES  CLEAR     68  66  94 SE6       29.90S
MOORHEAD       FAIR      72  70  94 SE8       29.85F
FERGUS FALLS   CLEAR     72  72 100 SE7       29.87S
MORRIS MN        N/A     70  70 100 SE3       29.87F FOG
STAPLES        PTCLDY    70  66  88 S7        29.92R
$$
  *****  WEATHER ELSEWHERE ACROSS MINNESOTA  *****

CITY           SKY/WX    TMP DP  RH WIND       PRES   REMARKS
DULUTH         PTCLDY    68  66  93 CALM      29.95F
INTRNTL FALLS  CLEAR     53  52  96 CALM      29.93S
ELY            MOCLDY    55  54  94 CALM      29.96S
CLOQUET        MOCLDY    70  66  88 CALM      29.95S
WHEATON        CLEAR     63  61  94 SE5       29.88R FOG
BRAINERD       CLOUDY    73  69  87 SE6       29.90F
HIBBING        MOCLDY    60  58  92 CALM      29.95F
ALEXANDRIA     PTCLDY    70  68  93 SE5       29.91F
SAINT CLOUD    LGT RAIN  70  69  97 E5        29.89F
MINNEAPOLIS    CLOUDY    77  72  84 S5        29.92F
$$

  *****  WEATHER ACROSS SOUTH DAKOTA  *****

CITY           SKY/WX    TMP DP  RH WIND       PRES   REMARKS
SIOUX FALLS    PTCLDY    74  70  87 S6        29.86F
BROOKINGS      CLEAR     68  63  83 E12       29.89F
WATERTOWN      CLEAR     70  62  76 SE8       29.87F
HURON          CLEAR     69  67  93 SE7       29.82F FOG
SISSETON         N/A     66  66 100 CALM      29.84F
ABERDEEN       CLEAR     66  63  90 SE5       29.83S
MITCHELL       CLEAR     68  68 100 SE5       29.82F FOG
PIERRE         CLEAR     72  68  87 E8        29.78F
MOBRIDGE       CLEAR     69  67  93 SE7       29.78F
RAPID CITY     CLEAR     63  54  72 NW6       29.88S
$$

  *****  SOME WEATHER IN NEARBY STATES *****

CITY           SKY/WX    TMP DP  RH WIND       PRES   REMARKS
GLASGOW MT     CLEAR     66  41  40 E13       29.76F
GREAT FALLS MT CLEAR     66  32  28 SE8       29.77S
CHEYENNE WY    CLEAR     65  40  39 W14       30.12F
SCOTTSBLUFF NE PTCLDY    64  50  60 E7        29.94S
OMAHA NE       MOCLDY    80  67  64 S21       29.92S
DES MOINES IA  MOCLDY    76  67  73 S9        29.98S
DAVENPORT IA   PTCLDY    76  69  79 SW7       30.03S
CHICAGO IL     PTCLDY    78  72  81 SW9       30.03S
EAU CLAIRE WI  MOCLDY    73  71  93 CALM      29.94S
LA CROSSE WI   PTCLDY    77  73  87 SE6       29.95S
$$

  *****  SOME NATIONAL WEATHER *****

CITY           SKY/WX    TMP DP  RH WIND       PRES   REMARKS
LA GUARDIA NY  CLEAR     77  67  71 S3        30.05S
RALEIGH NC     PTCLDY    72  68  87 CALM      30.09S
ATLANTA GA     MOCLDY    76  68  76 CALM      30.12S
NEW ORLEANS LA CLOUDY    80  72  76 S5        30.07R
OKLAHOMA CITY  PTCLDY    76  63  64 S9        30.04R
ALBUQUERQUE NM MOCLDY    76  42  29 S7        30.18R
SALT LAKE CITY PTCLDY    80  34  19 S14       29.91S
LOS ANGELES CA MOCLDY    68  62  81 W7        29.95R
BOISE ID       CLEAR     72  40  31 S5        29.73F
SEATTLE WA     CLOUDY    58  55  90 S12       29.82R
$$

*** WEATHER ACROSS MANITOBA...SASKATCHEWAN AND ONTARIO ***
                ***ONTARIO***

CITY           SKY/WX    TMP DP  RH WIND       PRES   REMARKS
GERALDTON      CLEAR     59  57  94 SW5       29.92R
THUNDER BAY    PTCLDY    59  57  94 W3        29.95R
SIOUX LOOKOUT  CLEAR     54  52  94 SE5       29.91S
TORONTO        CLEAR     70  64  83 W6        30.05R
BIG TROUT LK   CLEAR     55  54  94 E6        29.85S
PICKLE LAKE    NOT AVBL
DRYDEN         CLEAR     66  54  63 S9        29.92R
KENORA         CLEAR     68  55  64 S7        29.90R
$$
                *** MANITOBA***

CITY           SKY/WX    TMP DP  RH WIND       PRES   REMARKS
BRANDON        PTCLDY    70  55  60 S8        29.77S
DAUPHIN        CLEAR     66  57  72 W7        29.73S
ISLAND LAKE    PTCLDY    63  61  94 CALM      29.78R
PILOT MOUND      N/A     66  54  63 S10         N/A
THE PAS        CLEAR     61  52  72 S6        29.69R
THOMPSON       PTCLDY    59  55  88 E6        29.74S
WINNIPEG       CLEAR     68  57  68 S9        29.81S
LYNN LAKE      CLEAR     57  55  94 SE8       29.65F FOG
CHURCHILL      MOCLDY    48  46  93 SE9       29.85S
$$
                ***SASKATCHEWAN***

CITY           SKY/WX    TMP DP  RH WIND       PRES   REMARKS
ESTEVAN        NOT AVBL
KINDERSLEY     MOCLDY    61  41  48 E15       29.70F
LLOYDMINSTER   CLOUDY    50  41  71 NE3       29.70F
PRINCE ALBERT  PTCLDY    54  45  71 NW8       29.73S
REGINA         PTCLDY    61  46  59 E6        29.76F
YORKTON        CLEAR     57  52  82 S7        29.77S
N. BATTLEFORD  CLEAR     61  39  44 NE10      29.73F
LA RONGE       CLEAR     59  43  55 NW14G21   29.73R
SASKATOON      PTCLDY    55  45  67 E6        29.75S
SWIFT CURRENT  CLEAR     57  37  47 SE8       29.75S
$$
NOTE: THESE ARE AUTOMATED STATIONS WITH LIMITED QUALITY CONTROL
      "FAIR" INDICATES FEW OR NO CLOUDS BELOW 12,000 FEET WITH NO
      SIGNIFICANT WEATHER AND/OR OBSTRUCTIONS TO VISIBILITY.
      SKY/WX - SKY CONDITION AND SIGNIFICANT WEATHER.
      TMP - AIR TEMPERATURE.    DP   - DEWPOINT TEMPERATURE.
      RH  - RELATIVE HUMIDITY.  PRES - PRESSURE.
      HX  - HEAT INDEX.         WCI  - WIND CHILL INDEX.
$



USA.gov is the U.S. government's official web portal to all federal, state and local government web resources and services.